Location: Doux
(49.5045°N, 4.4321°E)
Time: 10:47:08
(UTC+00:00)

CZ-2C R/B - Pass Details

Date: 23 May 2024
Orbit: 703 x 904 km, 98.2° (Epoch: 14 June)

Event Time Altitude Azimuth Distance (km) Brightness Sun altitude
Rises 01:35:13 0° 17° (NNE) 3,539 8.1 -15.3°
Reaches altitude 10° 01:37:44 10° 22° (NNE) 2,597 7.1 -15.1°
Maximum altitude 01:43:26 53° 99° (E) 1,099 3.9 -14.6°
Enters shadow 01:48:27 13° 174° (S) 2,344 5.0 -14.2°
